GEFSMA_500_meanwind_174.txt.gz
Wind_Speed
3 3 3 4 4 4 4 5 5 5 5 5 5 5 5 4 4 3 3 3 4 4 4 4 3 4 4 4 5 5 5 6 5 5 5 5 5 5 5 5 6 7 7
3 3 4 4 4 4 5 6 5 6 6 7 6 6 5 5 5 4 4 3 4 5 5 5 4 4 4 5 6 6 6 6 6 7 7 6 6 6 7 7 8 8 8
4 3 4 4 4 4 5 6 6 6 7 8 7 7 6 6 5 6 5 5 5 5 6 6 6 5 5 6 6 7 7 7 7 7 8 8 8 8 9 8 9 9 10
4 4 4 5 5 5 5 5 6 7 8 8 8 8 8 7 7 7 7 7 6 7 6 7 7 7 7 7 7 8 8 9 9 9 9 9 10 10 10 10 10 11 11
4 4 5 5 6 6 6 6 6 7 8 8 8 9 8 8 8 8 8 9 8 8 8 8 8 8 8 8 8 8 9 9 10 10 11 11 11 11 11 12 12 12 13
2 4 5 6 6 6 6 6 6 7 8 9 9 10 9 9 10 10 10 10 10 10 10 9 10 10 9 10 10 10 10 11 11 11 12 12 12 12 12 13 13 14 14
1 2 4 5 6 6 6 7 7 8 9 10 10 11 11 11 11 11 12 12 12 12 12 12 12 11 11 11 12 12 12 12 12 12 13 13 13 13 14 14 14 15 15
1 2 3 4 5 6 6 8 8 8 9 10 11 12 12 12 12 12 13 13 14 14 14 14 14 13 13 14 14 13 13 14 14 14 15 15 15 15 16 16 16 17 17
2 1 2 3 5 6 7 8 9 10 10 10 11 11 12 13 13 13 13 14 15 15 15 15 15 15 15 15 15 15 15 15 15 16 16 16 17 17 18 18 18 19 19
3 2 3 3 4 5 7 8 9 10 11 11 12 12 12 13 14 14 14 14 15 16 16 16 16 16 16 16 17 17 17 17 17 17 17 18 18 18 19 19 19 19 20
4 4 4 4 5 6 7 8 9 10 11 12 13 13 13 14 14 15 15 15 15 15 17 17 17 18 17 18 18 18 19 18 19 19 19 19 19 20 20 21 21 21 22
5 5 5 5 6 6 7 8 9 10 11 11 12 13 14 15 15 15 15 16 16 16 16 18 18 19 19 19 19 20 20 20 21 21 21 21 22 22 22 23 23 23 24
7 6 6 7 7 8 8 8 9 10 11 12 13 13 14 15 16 17 17 17 17 17 18 19 19 20 20 20 21 21 21 21 22 22 22 22 23 23 24 25 25 25 25
9 8 8 8 8 8 9 9 9 10 10 11 12 13 13 14 15 16 17 17 18 19 19 20 20 20 20 21 23 23 23 23 24 23 24 24 24 25 25 26 26 26 27
10 10 10 10 10 10 10 10 9 10 10 11 12 13 13 14 14 15 16 17 18 20 20 20 20 21 22 23 23 24 25 25 25 24 25 26 27 27 27 27 27 28 29
10 11 11 12 12 12 11 11 11 11 11 12 14 14 15 15 15 16 17 17 18 19 19 20 21 21 22 23 23 24 24 24 25 26 26 27 28 28 29 29 29 29 30
12 12 12 13 13 13 12 12 12 13 14 14 14 15 17 17 17 18 19 19 19 19 19 20 22 21 21 22 23 23 24 24 25 26 26 27 28 29 30 30 29 30 30
14 14 14 14 14 14 14 13 13 14 15 16 16 16 17 18 18 19 20 20 20 20 20 21 22 23 23 23 23 24 24 25 26 26 27 27 28 29 30 31 31 32 31
15 15 15 15 15 15 15 15 15 15 16 17 17 18 18 18 19 20 21 21 22 22 21 21 22 23 24 24 24 24 25 26 27 27 27 28 28 29 30 31 31 31 31
16 16 16 17 17 17 17 17 17 17 17 18 18 18 19 19 20 20 21 22 22 22 23 23 23 23 24 24 24 25 26 26 27 28 27 27 27 28 29 30 30 30 31
17 16 17 18 18 19 19 20 20 19 19 20 20 20 20 20 20 21 21 21 22 22 23 23 24 24 25 25 25 26 26 26 27 27 27 28 28 29 29 30 30 30 31
18 18 18 20 20 21 21 21 21 21 20 21 21 22 22 21 21 21 21 22 22 22 23 24 24 25 25 26 26 26 26 26 27 28 29 29 29 29 30 30 30 31 31
21 21 21 22 22 23 23 22 22 22 22 22 23 23 23 23 23 23 23 23 23 24 24 25 25 25 26 26 27 27 27 27 28 29 30 30 30 31 31 31 31 32 31
24 24 24 25 25 25 25 25 25 25 25 25 24 24 25 25 24 24 24 24 24 24 25 25 26 27 28 28 29 29 29 29 30 30 30 30 31 32 32 32 32 33 33
26 26 27 28 28 28 28 27 27 27 27 27 26 26 25 26 26 26 26 26 25 26 26 26 26 27 28 29 29 30 30 31 31 31 32 32 32 32 32 32 32 33 33
28 28 29 31 30 31 31 29 28 28 28 28 27 27 27 27 27 27 27 27 27 27 27 27 28 28 28 29 30 30 30 31 32 32 32 33 33 33 32 33 34 34 34

GEFSMA_500_meanwind_180.txt.gz
Wind_Speed
2 2 3 3 4 3 3 4 4 3 3 4 4 4 4 4 4 4 4 4 4 5 5 5 5 5 5 5 6 6 6 6 7 7 7 7 7 7 7 7 8 8 8
2 3 3 4 3 4 4 4 4 4 4 5 5 5 5 5 5 5 5 5 5 5 6 6 7 7 7 7 7 7 7 7 8 8 8 8 9 9 9 9 9 9 9
3 3 4 4 4 4 5 5 5 5 5 6 6 6 6 6 6 6 6 6 6 6 7 7 8 8 8 8 8 8 9 9 9 10 10 10 10 10 10 11 11 11 11
3 4 5 5 5 4 5 6 7 6 6 6 6 7 7 8 8 7 8 8 8 8 8 9 9 9 9 9 10 10 11 11 11 11 11 11 12 12 12 12 12 12 13
4 5 6 6 6 5 5 6 7 7 8 8 8 8 9 9 10 9 9 10 10 11 10 10 11 11 11 11 11 11 12 12 12 12 13 13 13 13 13 13 14 14 15
3 4 6 6 6 6 5 6 7 8 8 8 9 9 10 10 11 11 11 11 12 13 12 12 12 13 12 12 12 12 12 13 13 14 14 14 15 15 15 15 15 15 16
2 3 5 6 6 6 6 6 7 7 8 9 9 10 11 12 12 12 12 13 14 14 14 15 14 14 14 14 14 14 14 15 15 16 16 16 16 16 17 17 17 17 17
2 2 2 4 6 7 7 7 8 8 9 9 10 11 12 12 12 12 13 14 14 15 16 16 17 17 17 16 16 16 16 16 17 18 18 18 18 18 18 19 19 19 19
2 2 3 3 4 5 7 8 9 9 10 11 11 12 12 12 13 13 14 14 15 16 16 17 18 19 18 18 18 18 18 18 18 19 19 19 20 20 20 20 20 21 21
3 3 3 3 4 4 6 8 9 10 11 12 13 14 14 15 15 15 15 15 16 16 17 18 18 18 19 19 19 19 19 19 19 19 20 20 21 22 22 22 22 22 22
5 5 4 5 5 6 6 7 8 10 12 13 14 15 15 16 16 16 16 17 18 18 18 18 18 19 19 20 20 21 21 21 21 21 22 22 22 23 23 23 23 23 24
6 6 6 6 6 7 7 8 9 10 11 12 13 15 15 15 16 17 17 18 19 20 20 19 19 19 20 21 21 22 22 22 22 22 23 24 24 24 24 24 24 24 25
8 8 8 7 7 8 9 9 10 10 11 12 13 14 15 16 17 17 18 19 20 20 21 21 21 21 21 22 22 24 24 24 24 24 25 25 25 26 26 26 26 26 26
9 9 10 9 9 10 10 10 10 10 11 12 13 14 15 16 17 18 19 20 20 20 21 22 22 22 23 23 23 24 25 25 26 26 26 26 27 26 27 27 28 28 29
10 11 11 11 11 11 12 11 11 11 12 12 13 14 15 17 18 19 20 21 21 21 22 23 23 24 24 24 25 24 25 25 26 27 27 27 28 28 28 29 29 29 30
11 11 12 12 12 12 12 13 12 12 13 14 14 15 17 17 18 19 20 21 22 22 22 23 24 25 24 24 25 25 25 25 25 26 27 28 28 29 29 29 30 30 30
11 12 12 13 13 12 13 14 14 14 15 15 16 18 18 18 19 19 20 21 23 23 24 24 25 25 26 25 25 25 26 26 26 26 27 27 28 29 29 30 30 30 30
12 13 13 13 13 13 13 15 15 16 16 16 17 18 19 19 20 21 21 21 22 23 23 24 25 26 26 26 26 26 26 27 27 27 27 28 29 29 29 30 29 30 31
14 13 14 14 13 14 15 16 16 17 17 17 18 18 19 20 20 21 22 22 23 24 24 24 24 25 26 27 27 27 27 27 27 28 28 29 29 29 29 30 29 30 31
16 15 15 15 15 15 17 17 17 18 18 18 19 20 20 21 21 22 22 23 24 24 24 24 23 25 26 26 26 27 27 27 28 29 29 29 29 29 30 30 30 30 30
18 16 16 16 17 17 18 19 19 19 20 20 21 22 22 22 21 22 22 23 24 24 24 25 25 25 26 26 26 27 27 26 27 28 28 29 30 30 30 31 31 31 30
19 18 18 18 18 19 20 21 22 22 22 23 24 24 24 23 23 23 23 23 24 24 25 25 26 26 27 27 27 27 27 27 28 28 29 29 30 31 31 31 31 31 31
21 20 20 20 20 21 22 23 24 24 24 25 25 25 25 25 25 25 25 25 25 25 25 25 26 26 27 27 27 27 28 28 28 29 30 30 31 31 32 32 32 32 32
23 23 23 22 23 23 24 25 25 26 26 26 27 27 27 27 27 27 26 26 27 27 27 26 26 26 27 27 27 28 28 28 28 29 30 30 31 32 33 33 33 34 34
26 25 25 25 25 25 26 27 27 27 27 27 28 28 28 28 28 27 26 27 27 27 27 27 27 27 27 28 28 28 29 29 29 30 30 31 32 33 34 34 34 34 34
28 27 27 27 27 28 28 29 29 28 28 29 29 30 29 29 29 28 27 27 28 28 28 28 28 28 28 28 29 29 29 29 29 30 31 32 32 33 33 33 33 34 34

GEFSMA_500_meanwind_186.txt.gz
Wind_Speed
3 4 5 5 4 4 4 4 5 5 4 4 4 3 4 4 4 4 5 5 6 6 6 6 6 6 6 7 7 7 7 7 8 8 8 8 8 8 8 7 7 7 7
4 4 5 5 4 4 4 4 5 4 4 4 4 4 3 3 5 5 6 6 6 7 7 7 7 7 7 8 9 8 8 8 9 9 10 10 10 9 9 9 8 9 9
4 4 5 5 4 5 5 4 5 5 4 4 4 5 4 5 5 6 6 7 7 7 7 7 7 7 8 8 9 9 9 9 10 11 11 11 11 11 11 10 10 10 10
4 4 5 5 5 5 5 5 6 6 6 6 6 6 6 6 6 6 7 7 8 8 8 9 8 8 9 10 10 10 11 10 11 11 11 12 12 12 12 12 12 12 12
3 3 4 5 5 4 4 5 5 6 6 7 7 7 7 8 8 8 8 9 9 9 9 10 10 10 11 11 11 11 11 12 12 12 12 12 13 13 13 13 14 14 14
2 3 3 4 4 4 5 5 5 6 7 7 7 7 8 9 9 9 9 10 11 11 11 12 12 12 12 12 12 12 13 13 13 13 13 14 14 14 15 15 15 16 16
2 2 2 3 4 4 5 5 5 7 8 8 8 8 9 10 10 11 11 11 12 12 12 12 13 14 14 14 14 14 14 15 15 15 15 15 16 16 16 16 17 17 17
3 3 3 2 3 4 4 5 6 7 8 8 9 9 10 11 11 12 12 12 12 13 13 13 13 15 15 15 16 16 16 17 17 17 17 17 17 17 18 18 18 18 19
4 4 4 3 3 4 5 6 7 7 8 9 10 10 11 12 12 13 14 14 14 14 14 15 15 15 16 17 17 17 18 18 19 19 19 19 18 18 19 19 20 20 20
6 5 5 5 5 5 6 7 8 8 8 9 11 12 12 13 13 14 15 15 16 16 16 16 17 17 17 17 18 19 19 19 19 20 20 21 20 20 20 20 20 21 22
7 6 6 7 7 6 6 7 8 8 8 9 10 12 13 14 15 15 16 17 18 18 18 18 18 18 18 19 19 19 19 20 20 21 21 22 22 22 22 22 22 22 23
8 8 7 7 7 7 7 8 8 8 9 10 10 11 13 14 15 16 16 17 18 18 19 19 19 19 19 19 19 20 20 20 21 22 22 23 24 23 23 23 23 23 24
8 8 8 9 9 8 8 9 9 9 9 10 11 12 13 14 15 16 17 18 18 19 19 19 18 19 19 20 20 21 21 22 22 23 23 24 24 24 25 25 25 25 25
10 9 9 9 9 9 9 9 10 10 11 11 11 12 13 14 15 16 17 18 19 20 20 20 20 21 21 21 21 22 23 24 24 24 24 25 25 25 25 25 26 26 26
11 11 10 10 10 11 10 10 11 11 12 12 13 13 14 15 16 16 17 18 18 19 20 22 22 22 22 22 23 23 24 24 25 25 25 25 25 26 26 26 26 26 27
12 13 12 11 11 11 11 11 11 11 12 13 13 14 15 15 16 17 18 18 19 19 19 21 22 22 23 23 23 24 24 24 25 25 25 26 26 26 27 26 27 27 27
13 13 13 13 12 11 12 12 12 13 14 14 14 15 16 17 18 18 18 19 20 20 20 21 22 23 23 23 23 24 25 26 26 27 27 27 27 27 27 27 28 28 28
14 14 14 14 13 13 14 14 14 15 15 15 16 17 17 17 18 19 19 20 20 20 21 21 22 23 23 23 23 24 25 26 26 27 27 28 28 28 28 28 28 28 28
15 15 15 15 15 14 14 14 14 15 15 16 16 17 17 18 19 19 20 20 20 21 21 21 22 22 23 24 24 25 25 25 26 26 26 27 27 27 27 27 27 28 28
16 16 17 17 17 16 15 15 15 15 16 17 17 18 18 18 19 19 20 20 20 21 22 22 21 22 23 24 25 26 26 27 26 26 26 27 27 27 27 27 28 28 28
18 18 18 18 18 17 17 17 17 17 18 18 19 19 20 20 20 20 21 21 21 22 22 22 23 23 24 25 26 26 27 27 27 26 27 27 28 28 28 28 28 28 29
20 20 20 20 19 19 19 19 19 20 20 21 21 22 21 21 22 22 22 22 22 23 23 23 24 25 25 26 26 27 27 27 27 28 28 27 28 28 29 28 28 29 30
23 23 22 22 22 22 21 21 21 22 22 22 23 23 22 22 23 23 24 24 24 24 24 25 25 26 26 26 27 27 27 28 28 28 28 28 29 29 30 30 31 31 32
25 24 24 24 24 24 24 24 24 24 24 24 24 25 25 24 24 25 25 25 25 25 25 26 26 26 27 27 27 28 28 28 28 28 29 29 30 31 31 31 32 32 32
26 26 26 26 26 26 27 26 26 26 26 27 27 28 27 27 27 27 27 26 27 27 27 26 27 27 28 28 29 29 29 29 29 29 30 30 30 30 30 30 31 31 32
29 29 28 28 28 28 28 28 27 28 28 28 29 29 29 29 29 29 28 28 28 28 28 28 28 29 29 29 30 30 31 31 31 31 31 31 31 31 31 31 32 32 33

GEFSMA_500_meanwind_192.txt.gz
Wind_Speed
1 2 4 4 4 4 4 4 4 4 4 4 4 4 4 4 4 4 4 4 4 5 5 5 5 5 5 6 6 6 6 7 7 7 7 7 7 7 7 7 7 7 7
1 2 2 3 3 3 4 4 4 4 4 4 4 4 4 4 4 4 4 5 5 5 5 6 6 5 5 5 7 8 9 8 8 9 9 9 9 9 9 9 9 9 9
1 1 2 2 2 3 3 3 4 4 4 4 5 5 5 5 5 5 5 5 6 6 6 6 6 6 6 7 8 8 9 9 9 10 10 10 10 10 10 10 10 10 10
2 2 1 1 2 2 2 3 4 4 4 4 4 5 5 6 5 5 5 5 6 7 7 7 7 8 8 8 9 9 9 9 9 10 10 10 11 11 11 11 12 12 12
2 2 2 2 3 2 2 2 3 4 4 4 4 5 5 5 6 7 7 7 7 7 7 8 8 9 9 10 10 10 11 10 11 11 11 11 12 12 12 12 13 14 14
3 3 2 2 2 2 2 3 3 4 5 5 6 6 5 6 6 7 8 8 8 8 8 9 9 10 10 11 11 11 12 12 12 12 13 13 12 13 13 14 14 15 15
5 4 3 2 2 3 3 3 4 5 6 6 7 7 7 8 8 8 8 8 9 9 9 10 10 10 11 12 13 13 13 13 14 14 14 14 14 15 15 15 16 16 16
6 5 4 4 2 2 3 4 5 5 6 7 8 8 8 9 9 9 9 9 10 10 11 11 12 12 12 12 13 14 14 15 15 16 16 16 16 16 17 17 17 18 18
7 6 5 5 4 3 3 3 4 5 6 7 8 9 9 10 9 9 10 10 10 12 12 13 13 13 14 14 15 15 16 16 16 16 16 17 18 18 18 18 18 19 19
8 7 7 6 6 5 5 5 6 6 7 8 8 9 9 9 9 9 10 11 12 13 13 14 14 15 15 15 15 16 17 17 18 18 18 18 19 19 19 20 20 20 20
10 8 7 6 6 6 6 6 7 7 7 7 8 8 9 9 10 10 11 12 13 14 14 15 15 15 15 15 16 17 17 18 18 19 19 19 20 20 21 21 21 21 22
10 9 9 8 7 7 7 7 8 8 8 8 8 9 10 10 10 10 11 12 14 15 15 16 16 17 17 16 16 17 18 19 19 20 20 21 21 22 22 23 23 23 23
10 11 10 9 8 8 8 9 9 8 9 9 9 9 10 11 11 12 12 13 14 15 16 16 17 17 17 17 18 19 19 20 21 21 22 23 23 24 24 24 24 24 24
11 11 10 10 10 10 10 10 10 10 10 10 10 11 11 11 12 13 13 14 14 16 17 18 18 18 18 19 19 20 21 21 22 23 23 24 24 25 25 24 24 25 25
12 11 11 10 10 11 11 11 10 10 10 11 11 12 12 13 13 14 15 15 16 17 17 19 19 19 19 20 21 22 21 21 21 22 23 23 24 24 24 24 25 25 26
13 13 12 12 11 12 12 12 12 12 12 12 13 14 14 14 14 15 16 17 17 17 17 18 18 19 20 21 22 22 21 21 22 22 23 24 24 24 24 25 25 25 26
15 14 14 13 13 14 14 14 14 14 14 14 14 15 16 16 16 16 16 17 18 18 18 18 19 19 20 21 21 21 21 21 22 22 23 24 24 24 24 25 25 26 26
16 16 16 16 16 16 16 16 16 15 15 15 16 16 16 17 18 18 18 19 19 19 19 19 19 20 20 21 21 21 22 22 22 22 23 23 24 24 25 25 25 25 25
18 18 18 17 17 17 17 18 17 17 17 18 18 18 18 18 19 20 20 20 21 21 21 20 21 21 21 21 22 22 22 22 23 23 23 24 25 25 26 26 26 27 27
20 20 20 20 20 19 19 19 19 19 19 20 20 20 20 20 20 20 21 22 22 22 22 22 22 22 22 22 22 22 22 23 23 24 25 25 25 26 26 26 27 27 27
22 23 23 22 21 20 21 21 21 21 21 21 22 21 21 22 22 22 22 23 23 23 23 23 23 23 23 23 23 23 23 24 24 24 24 25 26 26 26 26 27 28 28
25 24 24 23 23 23 23 23 23 23 24 24 24 23 23 23 23 23 23 24 24 24 24 24 25 25 25 25 25 25 25 25 25 25 25 26 26 26 27 27 27 27 27
26 26 25 26 26 26 25 25 25 25 25 25 25 25 25 25 26 26 25 26 26 26 26 26 26 26 26 26 26 26 27 27 27 27 27 27 27 28 28 27 27 27 27
28 27 27 28 27 28 28 27 27 27 27 28 28 28 27 28 28 28 27 27 28 28 28 28 28 28 28 28 27 27 28 28 28 29 29 29 29 29 29 29 28 28 28
30 29 29 29 29 30 30 30 29 30 30 30 31 30 30 30 30 30 30 30 30 30 30 30 29 29 29 29 29 29 29 29 30 30 30 31 30 30 29 29 30 30 30
33 32 31 31 32 32 32 32 32 32 31 32 32 31 32 32 32 32 32 32 32 32 31 31 30 30 30 30 30 31 31 31 31 32 32 32 32 31 31 31 32 32 32

GEFSMA_500_meanwind_198.txt.gz
Wind_Speed
5 5 5 6 6 6 6 6 5 5 5 5 5 5 5 5 6 6 5 5 5 6 6 6 6 7 7 6 6 6 7 7 8 9 9 9 9 9 9 9 9 9 9
4 4 5 5 6 5 6 6 5 6 6 5 6 6 6 6 6 6 6 6 6 7 7 7 8 7 7 7 7 7 7 8 9 10 10 10 11 11 11 10 10 10 10
3 4 4 5 6 6 6 6 6 6 6 6 6 6 6 6 6 6 7 7 6 7 7 7 8 8 7 7 8 8 8 9 9 10 11 11 11 12 12 12 12 12 12
2 2 4 5 6 5 5 5 5 5 6 6 6 7 6 6 6 7 7 8 8 8 8 8 8 9 9 8 9 9 10 10 10 10 11 11 11 12 13 13 13 13 14
1 1 3 4 5 5 5 5 5 5 5 6 6 6 7 7 7 7 7 7 8 8 8 9 9 9 10 10 10 11 11 12 12 12 12 12 13 13 13 14 14 14 14
1 0 1 3 4 4 4 4 5 5 6 6 6 7 7 8 8 8 7 8 9 9 9 10 10 10 10 11 11 11 12 13 13 13 14 14 14 14 14 15 15 15 16
4 2 1 0 2 3 4 4 4 5 5 6 7 7 8 8 9 9 9 9 9 10 10 10 11 10 11 11 12 12 13 14 15 15 15 15 16 17 17 16 17 17 17
5 4 3 2 1 1 3 4 4 5 6 7 7 8 8 9 10 10 10 10 10 11 12 12 12 12 12 12 13 14 14 14 15 16 16 16 17 17 17 18 18 18 18
6 4 3 2 2 1 1 2 3 4 5 6 6 7 8 9 9 10 10 10 11 11 12 13 13 13 13 14 15 15 15 16 17 17 17 18 18 18 18 19 19 19 20
6 5 4 3 2 1 1 1 2 3 4 5 6 7 8 8 9 9 10 11 11 11 12 13 13 14 15 15 17 17 17 18 18 18 18 18 19 20 20 20 20 21 21
5 6 5 4 3 2 2 2 2 3 4 5 6 7 7 8 9 9 10 11 11 12 13 14 14 15 16 16 17 18 18 19 19 19 19 19 19 21 21 21 22 22 22
6 6 6 5 4 3 4 4 5 5 5 5 6 7 7 7 8 9 10 11 12 12 13 14 14 15 16 17 17 17 18 19 19 19 20 20 21 22 22 23 23 23 24
7 7 6 6 5 5 5 6 5 5 5 6 6 7 7 8 9 9 10 12 13 13 14 14 14 15 15 17 18 18 18 19 19 20 21 21 22 22 22 23 23 24 24
8 8 7 7 7 6 7 7 7 7 7 8 8 8 9 10 10 10 11 11 13 13 14 15 15 15 15 16 17 18 18 18 19 20 21 22 22 22 22 23 23 23 23
9 8 8 8 8 8 8 8 9 9 9 10 10 10 10 11 11 11 12 12 13 13 14 15 15 16 16 17 17 17 18 19 19 20 20 21 22 22 23 23 24 24 24
10 9 10 10 10 10 10 10 10 10 10 11 11 11 11 11 11 12 12 13 14 14 15 15 15 16 16 17 17 18 18 18 19 19 19 20 21 21 22 23 23 23 23
11 11 11 11 12 12 12 12 12 12 12 12 12 12 13 13 14 14 14 15 15 16 16 17 17 17 18 18 18 18 19 19 19 20 20 20 21 21 21 22 22 22 23
13 13 12 13 13 13 13 14 14 14 14 14 14 14 14 15 16 16 16 16 16 17 17 18 18 18 18 19 19 20 20 19 19 20 20 20 20 21 22 22 22 22 23
15 14 14 14 14 15 15 15 15 15 15 15 15 15 15 16 17 17 17 18 18 18 19 19 19 20 20 20 21 21 21 21 20 20 20 20 20 21 21 22 23 23 24
17 17 16 16 17 17 18 17 16 17 17 17 17 17 18 19 19 19 19 19 20 20 20 20 20 21 21 21 21 22 22 22 22 21 21 21 21 21 22 22 23 23 24
20 20 20 20 20 19 19 19 19 19 19 19 20 20 21 22 22 21 21 21 21 21 22 22 22 22 23 22 22 23 23 23 23 23 22 22 22 23 24 24 24 24 25
23 23 22 22 22 22 22 22 22 22 22 22 22 23 23 23 23 23 23 23 22 22 23 23 24 24 23 23 23 23 23 23 24 24 24 24 24 24 25 25 25 26 26
26 25 25 25 25 25 24 24 24 25 24 24 25 25 25 26 25 25 26 25 24 24 24 24 24 25 25 24 24 24 24 24 24 25 26 26 26 26 27 27 27 27 27
29 28 28 28 27 27 27 27 27 26 26 26 26 27 27 28 28 29 28 27 26 25 25 25 25 25 26 26 26 25 25 26 26 26 27 27 28 28 29 28 28 28 28
32 31 31 31 30 29 29 29 29 28 28 28 28 28 29 29 29 29 28 27 27 26 26 27 26 26 27 27 26 26 27 27 28 28 28 28 29 29 30 30 29 29 29
36 36 35 34 34 32 31 30 30 29 29 29 30 30 30 30 29 28 27 27 27 27 27 28 28 28 28 28 28 28 28 29 29 29 30 30 30 30 30 31 31 31 31

GEFSMA_500_meanwind_204.txt.gz
Wind_Speed
4 4 4 5 5 5 5 4 4 4 4 4 5 5 5 6 5 5 5 5 6 6 7 7 8 8 8 8 8 8 8 8 8 9 9 9 9 9 9 9 9 9 9
3 4 4 5 4 4 5 5 5 5 5 5 5 5 5 6 6 5 5 6 6 6 7 8 8 9 9 9 9 9 10 10 10 10 10 10 10 10 10 10 10 11 11
1 2 3 4 4 4 5 5 6 5 6 6 6 6 6 6 6 6 6 7 7 8 8 8 8 9 10 10 10 10 10 11 11 11 11 11 11 11 12 12 12 12 12
1 1 2 3 4 4 5 6 6 6 6 6 6 6 7 7 7 7 7 7 7 8 9 9 9 9 10 10 11 11 12 12 12 12 12 12 12 12 13 13 13 14 13
2 2 2 2 4 4 5 6 6 6 6 6 7 6 7 8 8 8 8 9 9 9 9 9 9 10 11 12 12 12 13 13 13 13 13 14 14 15 14 14 14 15 15
3 2 2 2 3 4 4 5 6 6 6 7 7 7 8 8 9 9 10 10 9 9 9 10 10 11 12 13 13 13 13 14 14 14 14 14 15 15 16 15 16 16 16
4 3 2 1 2 3 4 5 5 6 6 7 7 8 9 9 10 10 10 10 10 10 11 11 11 12 12 13 13 13 14 14 15 16 16 15 16 16 17 17 17 17 17
4 4 1 1 2 2 3 4 5 5 6 7 7 8 9 9 9 10 11 11 11 11 11 12 12 12 13 14 14 14 14 15 15 16 16 16 17 16 18 18 19 18 18
4 4 3 2 2 3 3 4 5 5 6 7 8 8 9 9 10 10 10 11 11 12 12 12 13 13 13 14 14 15 15 16 16 16 16 17 18 18 18 18 19 19 19
5 4 3 3 3 4 4 4 5 5 6 7 8 8 9 10 10 10 10 11 12 12 13 13 13 13 14 14 15 15 15 16 16 16 16 17 18 18 19 19 19 19 19
6 5 5 4 5 5 5 6 6 6 7 7 7 8 9 9 10 10 11 12 13 13 14 13 14 15 15 14 15 15 15 16 16 17 17 18 18 18 19 20 20 20 21
6 6 6 5 6 6 7 7 8 8 8 8 9 9 9 9 10 10 11 12 13 13 14 14 14 15 15 15 16 16 16 17 18 18 18 18 18 19 19 19 20 21 21
6 6 6 6 6 7 8 8 9 8 9 9 10 10 11 11 11 11 11 12 13 13 13 14 14 15 15 16 16 16 17 18 19 19 19 19 19 19 19 20 20 21 22
6 7 7 7 8 8 9 10 10 10 10 11 11 11 12 12 12 12 13 13 13 13 14 15 15 16 16 17 17 17 17 18 18 19 19 19 19 18 18 19 19 20 20
8 8 8 8 9 9 9 10 10 11 12 12 12 12 13 13 13 13 13 14 14 14 15 15 16 17 17 17 17 17 17 18 18 18 19 19 19 19 19 19 20 20 21
10 10 10 10 10 10 10 11 11 11 12 12 12 12 12 13 13 14 14 15 15 15 16 16 17 18 19 18 18 18 18 18 19 19 19 19 19 20 20 21 21 21 21
12 11 11 12 12 12 12 12 12 13 13 14 13 13 13 14 15 15 16 16 16 16 17 18 18 19 20 20 20 20 20 20 20 20 20 20 20 20 21 21 21 21 22
14 14 13 14 14 15 15 15 15 15 15 16 16 16 16 17 17 17 17 18 18 18 18 18 19 20 21 21 21 21 22 22 22 22 22 22 22 22 22 22 22 22 22
17 17 16 16 16 17 17 17 17 18 18 18 18 18 18 19 19 19 20 20 20 21 21 21 21 21 22 23 23 23 23 23 23 23 23 23 23 23 23 23 23 23 23
20 20 20 19 19 19 20 20 20 21 21 21 21 21 21 21 21 21 22 23 23 23 24 24 24 24 24 24 24 24 24 24 23 23 23 23 23 23 23 23 24 24 24
22 22 22 22 22 22 23 23 24 24 24 23 24 23 23 24 24 24 24 24 25 25 26 26 26 26 26 26 25 25 24 24 24 24 24 24 24 24 24 24 25 25 25
25 25 25 25 26 26 26 26 27 27 27 27 27 26 26 26 26 25 26 26 26 26 27 27 28 27 27 27 26 26 25 25 25 25 25 24 24 25 25 25 25 26 26
27 28 28 29 28 28 28 28 29 29 30 30 30 29 28 28 28 28 27 27 27 28 28 28 28 28 28 27 26 25 25 26 26 25 25 26 26 26 26 26 26 26 27
30 31 31 31 30 30 30 31 31 31 31 30 30 30 29 29 29 29 28 28 28 29 30 29 29 29 28 27 26 26 27 27 27 27 26 27 27 27 27 27 28 28 28
33 34 33 33 33 33 33 32 32 32 32 31 32 31 30 30 31 30 30 30 30 30 30 30 30 30 29 28 27 27 27 28 27 27 28 29 29 29 29 29 29 29 30
35 36 35 36 35 35 35 34 34 33 33 33 32 32 32 32 32 32 32 31 31 31 31 31 31 30 30 29 29 28 29 29 29 29 29 29 29 29 29 30 30 31 31